Weather History for Cape Girardeau, MO

Change the Weather History Date:

Wednesday, April 3, 2013

  Actual Average Record
Temperature  
Mean Temperature 43 °F 53 °F  
Max Temperature 54 °F 65 °F 84 °F (1986)
Min Temperature 31 °F 41 °F 25 °F (1987)
Degree Days  
Heating Degree Days 22 13  
Month to date heating degree days 66 39  
Since 1 July heating degree days 4027 4095  
Cooling Degree Days 0 0  
Month to date cooling degree days 0 0  
Year to date cooling degree days 0 4  
Moisture  
Dew Point 24 °F    
Average Humidity 50    
Maximum Humidity 72    
Minimum Humidity 28    
Precipitation  
Precipitation 0.00 in 0.13 in 3.65 in (2008)
Month to date precipitation 0.00 0.42  
Year to date precipitation 9.17 11.70  
Sea Level Pressure  
Sea Level Pressure 30.28 in    
Wind  
Wind Speed 9 mph (ENE)    
Max Wind Speed 21 mph    
Max Gust Speed 26 mph    
Visibility 10 miles    
Events      
T = Trace of Precipitation, MM = Missing Value Source: NWS Daily Summary

Daily Weather History Graph

Daily Weather History Graph

Search for Another Location

Airport:

Trip Planner

Search our weather history database for the weather conditions in past years. The results will help you decide how hot, cold, wet, or windy it might be!

Date:

Astronomy

Apr. 03, 2013 Rise Set
Actual Time 6:40 AM CDT 7:22 PM CDT
Civil Twilight 6:14 AM CDT 7:49 PM CDT
Nautical Twilight 5:43 AM CDT 8:20 PM CDT
Astronomical Twilight 5:11 AM CDT 8:52 PM CDT
Moon 2:12 AM CDT (4/3) 12:43 PM CDT (4/3)
Length of Visible Light 13h 34m
Length of Day
12h 42m
Last Quarter, 44% of the Moon is Illuminated
Apr 3
Last Quarter
Apr 10
New
Apr 18
First Quarter
Apr 25
Full
May 2
Last Quarter

Hourly Weather History & Observations

Time (CDT) Temp. Windchill Dew Point Humidity Pressure Visibility Wind Dir Wind Speed Gust Speed Precip Events Conditions
1:53 AM 35.1 °F 30.1 °F 24.1 °F 64% 30.29 in 10.0 mi NE 5.8 mph - N/A   Clear
2:53 AM 33.1 °F 28.7 °F 24.1 °F 70% 30.29 in 10.0 mi East 4.6 mph - N/A   Clear
3:53 AM 35.6 °F 31.7 °F 24.8 °F 65% 30.26 in 10.0 mi East 4.6 mph - N/A   Clear
4:53 AM 34.0 °F 29.8 °F 23.0 °F 64% 30.27 in 10.0 mi East 4.6 mph - N/A   Clear
5:53 AM 32.0 °F 27.5 °F 24.1 °F 73% 30.30 in 10.0 mi ESE 4.6 mph - N/A   Clear
6:53 AM 33.1 °F 28.7 °F 25.0 °F 72% 30.35 in 10.0 mi NE 4.6 mph - N/A   Clear
8:53 AM 42.1 °F 36.6 °F 27.0 °F 55% 30.34 in 10.0 mi NE 9.2 mph - N/A   Clear
9:53 AM 46.0 °F 40.2 °F 26.1 °F 46% 30.33 in 10.0 mi NE 12.7 mph - N/A   Clear
10:53 AM 50.0 °F - 21.0 °F 32% 30.34 in 10.0 mi NE 13.8 mph - N/A   Clear
11:53 AM 51.1 °F - 19.9 °F 29% 30.32 in 10.0 mi NE 13.8 mph 23.0 mph N/A   Clear
12:53 PM 51.1 °F - 21.0 °F 31% 30.30 in 10.0 mi ENE 15.0 mph - N/A   Clear
1:53 PM 52.0 °F - 19.9 °F 28% 30.30 in 10.0 mi ENE 15.0 mph 20.7 mph N/A   Clear
2:53 PM 53.1 °F - 21.0 °F 29% 30.28 in 10.0 mi NE 15.0 mph - N/A   Clear
3:53 PM 54.0 °F - 21.9 °F 29% 30.25 in 10.0 mi ENE 11.5 mph - N/A   Clear
4:53 PM 54.0 °F - 23.0 °F 30% 30.24 in 10.0 mi NE 12.7 mph - N/A   Clear
5:53 PM 52.0 °F - 24.1 °F 34% 30.24 in 10.0 mi NE 11.5 mph - N/A   Clear
6:53 PM 50.0 °F - 21.9 °F 33% 30.23 in 10.0 mi East 10.4 mph - N/A   Clear
7:53 PM 46.9 °F - 26.1 °F 44% 30.24 in 10.0 mi NE 6.9 mph - N/A   Clear
8:53 PM 46.0 °F 41.9 °F 25.0 °F 44% 30.24 in 10.0 mi NE 8.1 mph - N/A   Clear
9:53 PM 44.1 °F 40.8 °F 27.0 °F 51% 30.24 in 10.0 mi ENE 5.8 mph - N/A   Clear
10:53 PM 43.0 °F 38.8 °F 26.1 °F 51% 30.23 in 10.0 mi NE 6.9 mph - N/A   Clear
11:53 PM 43.0 °F 39.5 °F 25.0 °F 49% 30.22 in 10.0 mi NE 5.8 mph - N/A   Clear